﻿#観測日時,平均風速,平均風向,最大風速,最大風速発生風向,最大瞬間風速,最大瞬間風速発生風向
#(年月日),(m/s)   ,(16方位),(m/s)   ,(16方位)        ,(m/s)       ,(16方位)            
2019/11/14 0:01,0.8,1,0.8,15,0.6,3
2019/11/14 0:02,0.8,2,0.8,15,0.4,3
2019/11/14 0:03,0.7,2,0.8,15,0.1,13
2019/11/14 0:04,0.6,1,0.7,15,0.1,14
2019/11/14 0:05,0.4,16,0.5,15,0.1,15
2019/11/14 0:06,0.4,15,0.4,15,0.5,16
2019/11/14 0:07,0.4,16,0.4,15,0.9,1
2019/11/14 0:08,0.3,16,0.3,15,1.1,16
2019/11/14 0:09,0.3,16,0.3,15,1,15
2019/11/14 0:10,0.3,16,0.3,16,0.8,15
2019/11/14 0:11,0.4,16,0.4,1,0.9,15
2019/11/14 0:12,0.4,15,0.4,2,1.1,16
2019/11/14 0:13,0.5,15,0.5,2,1.6,16
2019/11/14 0:14,0.6,16,0.6,16,1.6,15
2019/11/14 0:15,0.7,16,0.7,16,2.1,16
2019/11/14 0:16,0.9,16,0.9,16,2.4,15
2019/11/14 0:17,1,15,1,15,2.1,16
2019/11/14 0:18,1,15,1,15,2,16
2019/11/14 0:19,1.1,15,1.1,15,1.5,15
2019/11/14 0:20,1.1,15,1.1,15,1.5,14
2019/11/14 0:21,1.1,15,1.1,15,1,14
2019/11/14 0:22,1.1,15,1.1,15,0.5,13
2019/11/14 0:23,1.1,15,1.1,15,0.9,14
2019/11/14 0:24,1.1,15,1.1,15,1,14
2019/11/14 0:25,1.1,15,1.1,15,1.3,15
2019/11/14 0:26,0.9,14,1,15,1.1,14
2019/11/14 0:27,0.7,14,0.9,15,0.1,12
2019/11/14 0:28,0.7,14,0.7,15,1.4,8
2019/11/14 0:29,0.6,13,0.7,15,2,8
2019/11/14 0:30,0.6,12,0.6,15,2,8
2019/11/14 0:31,0.7,12,0.7,15,2.1,9
2019/11/14 0:32,0.8,11,0.8,15,1.8,8
2019/11/14 0:33,0.8,10,0.9,15,1.4,8
2019/11/14 0:34,0.8,9,0.8,15,1.1,9
2019/11/14 0:35,0.8,9,0.8,15,1,8
2019/11/14 0:36,0.8,9,0.8,14,1.3,9
2019/11/14 0:37,0.9,8,0.9,10,1.3,9
2019/11/14 0:38,1,9,1,8,1.4,10
2019/11/14 0:39,0.9,9,1,8,1.4,10
2019/11/14 0:40,0.8,9,0.9,8,0.9,10
2019/11/14 0:41,0.7,9,0.8,8,1,11
2019/11/14 0:42,0.6,9,0.7,8,0.1,13
2019/11/14 0:43,0.5,10,0.6,8,0.6,10
2019/11/14 0:44,0.4,9,0.5,8,0.1,7
2019/11/14 0:45,0.4,9,0.4,8,0.1,6
2019/11/14 0:46,0.3,9,0.4,8,0.6,9
2019/11/14 0:47,0.3,10,0.3,8,0.8,11
2019/11/14 0:48,0.3,10,0.3,9,0.9,11
2019/11/14 0:49,0.3,10,0.3,9,1,12
2019/11/14 0:50,0.4,10,0.4,9,1,12
2019/11/14 0:51,0.4,10,0.4,9,1,13
2019/11/14 0:52,0.5,11,0.5,9,1.1,12
2019/11/14 0:53,0.6,11,0.6,11,1.4,15
2019/11/14 0:54,0.6,12,0.6,11,1.1,15
2019/11/14 0:55,0.7,13,0.7,12,1.3,14
2019/11/14 0:56,0.7,13,0.7,12,1.4,15
2019/11/14 0:57,0.8,14,0.8,13,1.4,16
2019/11/14 0:58,0.8,14,0.8,13,1.3,15
2019/11/14 0:59,0.8,14,0.8,13,1,15
2019/11/14 1:00,0.7,14,0.8,13,0.6,16
2019/11/14 1:01,0.6,15,0.7,13,0.1,15
2019/11/14 1:02,0.5,15,0.6,13,0.1,10
2019/11/14 1:03,0.5,14,0.5,13,1,14
2019/11/14 1:04,0.5,14,0.5,13,1,14
2019/11/14 1:05,0.5,14,0.5,13,1,14
2019/11/14 1:06,0.4,14,0.5,13,0.5,14
2019/11/14 1:07,0.4,15,0.4,14,0.1,16
2019/11/14 1:08,0.3,15,0.3,14,0.8,4
2019/11/14 1:09,0.3,15,0.3,14,0.8,4
2019/11/14 1:10,0.4,16,0.4,14,0.6,4
2019/11/14 1:11,0.4,1,0.4,15,0.4,4
2019/11/14 1:12,0.4,2,0.4,15,0.3,3
2019/11/14 1:13,0.3,3,0.4,14,0.4,4
2019/11/14 1:14,0.3,3,0.3,14,0.8,3
2019/11/14 1:15,0.3,3,0.3,14,1,3
2019/11/14 1:16,0.4,4,0.4,14,0.9,3
2019/11/14 1:17,0.4,4,0.4,16,0.9,3
2019/11/14 1:18,0.5,3,0.5,4,1.4,1
2019/11/14 1:19,0.6,3,0.6,3,1.5,1
2019/11/14 1:20,0.6,3,0.6,3,1.6,1
2019/11/14 1:21,0.6,2,0.6,3,1.3,1
2019/11/14 1:22,0.7,2,0.7,2,0.6,16
2019/11/14 1:23,0.7,1,0.7,2,1.1,2
2019/11/14 1:24,0.8,1,0.8,1,1.6,1
2019/11/14 1:25,0.8,1,0.8,1,1.8,2
2019/11/14 1:26,0.8,1,0.8,1,1.8,2
2019/11/14 1:27,0.8,1,0.8,1,1,4
2019/11/14 1:28,0.8,1,0.8,1,0.4,2
2019/11/14 1:29,0.6,2,0.7,1,0.3,3
2019/11/14 1:30,0.6,2,0.6,1,0.8,3
2019/11/14 1:31,0.6,2,0.6,1,0.8,3
2019/11/14 1:32,0.6,2,0.6,1,0.9,1
2019/11/14 1:33,0.6,2,0.6,1,1.1,16
2019/11/14 1:34,0.5,2,0.6,1,0.6,16
2019/11/14 1:35,0.4,2,0.5,1,0.1,2
2019/11/14 1:36,0.4,2,0.4,1,0.6,3
2019/11/14 1:37,0.4,2,0.4,1,0.9,7
2019/11/14 1:38,0.4,3,0.4,1,0.5,9
2019/11/14 1:39,0.4,3,0.4,2,0.3,6
2019/11/14 1:40,0.3,3,0.4,2,0.6,9
2019/11/14 1:41,0.3,3,0.3,2,0.4,11
2019/11/14 1:42,0.3,6,0.3,2,0.6,10
2019/11/14 1:43,0.2,7,0.3,2,0.6,9
2019/11/14 1:44,0.2,8,0.2,2,0.3,9
2019/11/14 1:45,0.2,9,0.2,2,0.1,9
2019/11/14 1:46,0.2,9,0.2,2,0.4,11
2019/11/14 1:47,0.2,10,0.2,2,0.8,14
2019/11/14 1:48,0.2,11,0.2,3,0.6,13
2019/11/14 1:49,0.2,11,0.2,3,0.5,12
2019/11/14 1:50,0.2,12,0.2,3,0.1,13
2019/11/14 1:51,0.2,12,0.2,3,0,13
2019/11/14 1:52,0.2,12,0.2,7,0.1,4
2019/11/14 1:53,0.1,12,0.2,8,0,4
2019/11/14 1:54,0.1,13,0.1,8,0.5,11
2019/11/14 1:55,0.2,13,0.2,9,0.6,12
2019/11/14 1:56,0.2,14,0.2,9,0.9,14
2019/11/14 1:57,0.3,14,0.3,14,1,14
2019/11/14 1:58,0.3,14,0.3,14,1,16
2019/11/14 1:59,0.3,14,0.3,14,0.8,15
2019/11/14 2:00,0.3,15,0.3,14,1.1,15
2019/11/14 2:01,0.4,15,0.4,15,1.3,15
2019/11/14 2:02,0.5,15,0.5,15,1,16
2019/11/14 2:03,0.5,15,0.5,15,0.8,16
2019/11/14 2:04,0.5,15,0.5,15,0.5,16
2019/11/14 2:05,0.6,15,0.6,15,0.9,15
2019/11/14 2:06,0.6,15,0.6,15,1.1,15
2019/11/14 2:07,0.5,15,0.6,15,0.8,15
2019/11/14 2:08,0.5,15,0.5,15,0.1,16
2019/11/14 2:09,0.4,15,0.5,15,0,16
2019/11/14 2:10,0.4,15,0.4,15,0,16
2019/11/14 2:11,0.3,15,0.4,15,0.1,16
2019/11/14 2:12,0.3,15,0.3,15,0.1,16
2019/11/14 2:13,0.2,15,0.3,15,0.4,16
2019/11/14 2:14,0.2,15,0.2,15,0.3,16
2019/11/14 2:15,0.1,15,0.2,15,0.3,15
2019/11/14 2:16,0.1,15,0.1,15,1.1,15
2019/11/14 2:17,0.1,15,0.1,15,0.6,16
2019/11/14 2:18,0.1,15,0.1,15,0,15
2019/11/14 2:19,0.1,14,0.1,15,0,15
2019/11/14 2:20,0.1,14,0.1,15,0,15
2019/11/14 2:21,0.1,15,0.1,15,0.4,1
2019/11/14 2:22,0.2,15,0.2,15,0.8,1
2019/11/14 2:23,0.1,15,0.2,15,0.4,16
2019/11/14 2:24,0.2,15,0.2,15,0.1,14
2019/11/14 2:25,0.1,15,0.2,15,0.1,12
2019/11/14 2:26,0.1,15,0.1,15,0,13
2019/11/14 2:27,0.1,15,0.1,15,0,14
2019/11/14 2:28,0.1,15,0.1,15,0,14
2019/11/14 2:29,0.1,14,0.1,15,0,14
2019/11/14 2:30,0.1,15,0.1,15,0.8,1
2019/11/14 2:31,0.2,15,0.2,15,1.3,1
2019/11/14 2:32,0.2,15,0.2,15,0.9,2
2019/11/14 2:33,0.2,15,0.2,15,0.9,16
2019/11/14 2:34,0.3,16,0.3,15,0.8,2
2019/11/14 2:35,0.3,16,0.3,15,0.5,1
2019/11/14 2:36,0.4,1,0.4,1,0.6,2
2019/11/14 2:37,0.4,1,0.4,1,0.6,2
2019/11/14 2:38,0.4,1,0.4,1,0.5,2
2019/11/14 2:39,0.4,2,0.4,1,0.5,2
2019/11/14 2:40,0.4,2,0.4,1,0.3,2
2019/11/14 2:41,0.3,2,0.4,1,0.1,1
2019/11/14 2:42,0.3,2,0.3,1,0.4,7
2019/11/14 2:43,0.2,2,0.3,1,0.5,8
2019/11/14 2:44,0.2,3,0.2,1,0.6,6
2019/11/14 2:45,0.2,3,0.2,1,0.6,7
2019/11/14 2:46,0.2,3,0.2,1,0.3,14
2019/11/14 2:47,0.2,3,0.2,1,0,14
2019/11/14 2:48,0.1,2,0.2,2,0.3,15
2019/11/14 2:49,0.2,1,0.2,2,0.9,15
2019/11/14 2:50,0.2,1,0.2,2,1.4,15
2019/11/14 2:51,0.3,16,0.3,2,1.3,15
2019/11/14 2:52,0.4,15,0.4,16,1.5,15
2019/11/14 2:53,0.5,15,0.5,15,1.8,16
2019/11/14 2:54,0.5,15,0.5,15,1.4,15
2019/11/14 2:55,0.6,15,0.6,15,1.5,15
2019/11/14 2:56,0.8,15,0.8,15,2,16
2019/11/14 2:57,0.9,16,0.9,16,1.6,16
2019/11/14 2:58,1,15,1,15,1.4,16
2019/11/14 2:59,1,16,1,15,1.1,15
2019/11/14 3:00,1,16,1,15,0.6,16
2019/11/14 3:01,0.9,16,1,15,0.8,15
2019/11/14 3:02,0.9,16,0.9,15,0.5,16
2019/11/14 3:03,0.8,16,0.9,15,0.6,14
2019/11/14 3:04,0.7,15,0.8,15,0.8,13
2019/11/14 3:05,0.7,15,0.7,15,0.9,13
2019/11/14 3:06,0.5,15,0.7,15,0.6,12
2019/11/14 3:07,0.5,14,0.5,15,0.5,8
2019/11/14 3:08,0.4,14,0.5,15,0.5,11
2019/11/14 3:09,0.3,13,0.4,16,0.6,9
2019/11/14 3:10,0.4,12,0.4,16,0.6,9
2019/11/14 3:11,0.4,11,0.4,16,0.8,9
2019/11/14 3:12,0.4,10,0.4,16,1,10
2019/11/14 3:13,0.4,10,0.4,16,0.6,10
2019/11/14 3:14,0.4,10,0.4,15,0.4,10
2019/11/14 3:15,0.3,10,0.4,15,0,10
2019/11/14 3:16,0.3,9,0.3,15,0.1,6
2019/11/14 3:17,0.2,9,0.3,14,0,6
2019/11/14 3:18,0.2,8,0.2,14,0.3,3
2019/11/14 3:19,0.2,8,0.2,12,0.3,3
2019/11/14 3:20,0.2,7,0.2,12,0.3,2
2019/11/14 3:21,0.1,6,0.2,11,0.1,2
2019/11/14 3:22,0.1,5,0.1,10,0,2
2019/11/14 3:23,0,4,0.1,10,0.3,2
2019/11/14 3:24,0.1,3,0.1,10,0.5,16
2019/11/14 3:25,0.1,3,0.1,10,0.8,1
2019/11/14 3:26,0.2,2,0.2,9,0.6,2
2019/11/14 3:27,0.2,2,0.2,9,0.6,1
2019/11/14 3:28,0.3,2,0.3,2,1,1
2019/11/14 3:29,0.3,1,0.3,2,0.5,16
2019/11/14 3:30,0.3,1,0.3,2,0.6,3
2019/11/14 3:31,0.3,1,0.3,2,0.8,2
2019/11/14 3:32,0.4,1,0.4,1,1.1,2
2019/11/14 3:33,0.5,1,0.5,1,1,2
2019/11/14 3:34,0.5,1,0.5,1,0.8,1
2019/11/14 3:35,0.4,2,0.5,1,0.4,1
2019/11/14 3:36,0.4,1,0.4,1,0.9,15
2019/11/14 3:37,0.4,1,0.4,1,0.9,16
2019/11/14 3:38,0.4,1,0.4,1,0,1
2019/11/14 3:39,0.3,2,0.4,1,0,5
2019/11/14 3:40,0.3,2,0.3,1,0.1,10
2019/11/14 3:41,0.3,1,0.3,1,0.8,12
2019/11/14 3:42,0.3,16,0.3,1,1.3,13
2019/11/14 3:43,0.2,15,0.3,1,0.8,13
2019/11/14 3:44,0.2,14,0.2,1,0,13
2019/11/14 3:45,0.2,14,0.2,2,0.1,13
2019/11/14 3:46,0.2,13,0.2,1,0.9,15
2019/11/14 3:47,0.3,13,0.3,1,2,15
2019/11/14 3:48,0.4,13,0.4,1,1.9,15
2019/11/14 3:49,0.5,14,0.5,13,1.1,15
2019/11/14 3:50,0.6,14,0.6,14,1.1,16
2019/11/14 3:51,0.7,14,0.7,14,1.1,16
2019/11/14 3:52,0.6,15,0.7,14,0.6,15
2019/11/14 3:53,0.6,14,0.6,14,0.5,12
2019/11/14 3:54,0.6,14,0.6,14,0.9,14
2019/11/14 3:55,0.7,14,0.7,14,1.1,13
2019/11/14 3:56,0.8,14,0.8,14,1.6,13
2019/11/14 3:57,0.7,14,0.8,14,0.8,12
2019/11/14 3:58,0.6,14,0.7,14,0.4,6
2019/11/14 3:59,0.6,13,0.6,14,0.4,10
2019/11/14 4:00,0.5,12,0.6,14,0.6,8
2019/11/14 4:01,0.5,11,0.5,14,1.1,11
2019/11/14 4:02,0.5,11,0.5,14,1.5,10
2019/11/14 4:03,0.6,10,0.6,14,0.5,9
2019/11/14 4:04,0.5,10,0.5,14,0.3,16
2019/11/14 4:05,0.4,10,0.5,14,0.5,15
2019/11/14 4:06,0.3,10,0.4,14,0.4,1
2019/11/14 4:07,0.3,9,0.3,14,0.5,16
2019/11/14 4:08,0.3,12,0.3,14,0.6,15
2019/11/14 4:09,0.3,14,0.3,13,0.8,15
2019/11/14 4:10,0.4,14,0.4,11,0.8,11
2019/11/14 4:11,0.3,14,0.4,11,0.9,10
2019/11/14 4:12,0.4,14,0.4,11,2.1,12
2019/11/14 4:13,0.5,14,0.5,10,2,10
2019/11/14 4:14,0.6,12,0.6,12,1.5,9
2019/11/14 4:15,0.7,11,0.7,11,2,9
2019/11/14 4:16,0.8,10,0.8,10,1.8,9
2019/11/14 4:17,0.9,10,0.9,10,1.5,10
2019/11/14 4:18,0.9,10,0.9,10,1.6,9
2019/11/14 4:19,1,10,1,10,1.4,9
2019/11/14 4:20,0.9,9,1,10,0.5,10
2019/11/14 4:21,0.9,9,0.9,10,1,8
2019/11/14 4:22,0.9,9,0.9,10,1.1,8
2019/11/14 4:23,0.8,9,0.9,10,0.8,7
2019/11/14 4:24,0.8,8,0.8,10,0.5,7
2019/11/14 4:25,0.7,8,0.8,10,0.4,6
2019/11/14 4:26,0.6,8,0.7,10,1.4,1
2019/11/14 4:27,0.7,8,0.7,10,1.8,1
2019/11/14 4:28,0.7,7,0.7,10,1.9,1
2019/11/14 4:29,0.7,5,0.7,10,1.6,2
2019/11/14 4:30,0.7,4,0.7,9,1,2
2019/11/14 4:31,0.7,4,0.7,9,1.1,4
2019/11/14 4:32,0.7,4,0.7,9,1,8
2019/11/14 4:33,0.7,4,0.7,9,1,9
2019/11/14 4:34,0.7,3,0.7,8,1,6
2019/11/14 4:35,0.8,4,0.8,3,0.8,6
2019/11/14 4:36,0.7,4,0.8,3,0.9,6
2019/11/14 4:37,0.6,4,0.7,3,0.8,12
2019/11/14 4:38,0.6,4,0.6,3,1,13
2019/11/14 4:39,0.6,5,0.6,3,1.3,13
2019/11/14 4:40,0.6,7,0.6,3,1.3,12
2019/11/14 4:41,0.7,9,0.7,3,1.5,12
2019/11/14 4:42,0.7,10,0.7,3,1.5,11
2019/11/14 4:43,0.8,10,0.8,3,1.9,10
2019/11/14 4:44,0.8,11,0.8,3,2,9
2019/11/14 4:45,0.9,11,0.9,11,1.6,10
2019/11/14 4:46,1,11,1,11,1.4,9
2019/11/14 4:47,1,11,1,11,1.5,9
2019/11/14 4:48,1.1,10,1.1,10,2,10
2019/11/14 4:49,1.2,10,1.2,10,3.2,9
2019/11/14 4:50,1.3,10,1.3,10,2.7,11
2019/11/14 4:51,1.3,10,1.3,10,2.9,10
2019/11/14 4:52,1.5,10,1.5,10,3.6,9
2019/11/14 4:53,1.6,10,1.6,10,3.1,10
2019/11/14 4:54,1.7,10,1.7,10,3.7,10
2019/11/14 4:55,1.9,10,1.9,10,3.5,11
2019/11/14 4:56,2.1,10,2.1,10,4.4,10
2019/11/14 4:57,2.3,10,2.3,10,3.7,10
2019/11/14 4:58,2.4,10,2.4,10,3.6,9
2019/11/14 4:59,2.4,10,2.4,10,3.2,9
2019/11/14 5:00,2.4,10,2.4,10,3.5,10
2019/11/14 5:01,2.4,10,2.4,10,2.7,9
2019/11/14 5:02,2.3,10,2.4,10,2.6,10
2019/11/14 5:03,2.2,10,2.3,10,2.7,10
2019/11/14 5:04,2.2,10,2.2,10,2.9,9
2019/11/14 5:05,2.1,10,2.1,10,2.7,9
2019/11/14 5:06,1.9,10,2,10,2.5,11
2019/11/14 5:07,1.8,10,1.9,10,2.5,10
2019/11/14 5:08,1.8,10,1.8,10,3.5,10
2019/11/14 5:09,1.8,10,1.8,10,3.3,10
2019/11/14 5:10,1.9,10,1.9,10,3.7,11
2019/11/14 5:11,2,10,2,10,3.8,10
2019/11/14 5:12,1.9,10,2,10,2.9,11
2019/11/14 5:13,2,10,2,10,2.7,10
2019/11/14 5:14,2,10,2,10,3.1,13
2019/11/14 5:15,2,10,2,10,2.4,10
2019/11/14 5:16,2,11,2,10,2.7,11
2019/11/14 5:17,2,10,2,10,2.7,10
2019/11/14 5:18,1.9,10,2,10,2.7,11
2019/11/14 5:19,1.8,11,1.9,10,2.5,11
2019/11/14 5:20,1.7,11,1.8,10,1.3,10
2019/11/14 5:21,1.6,11,1.6,10,2.5,14
2019/11/14 5:22,1.5,11,1.5,10,2.2,12
2019/11/14 5:23,1.5,11,1.5,10,2.2,12
2019/11/14 5:24,1.4,11,1.5,10,2.5,9
2019/11/14 5:25,1.5,11,1.5,10,3.6,10
2019/11/14 5:26,1.6,11,1.6,11,3.1,10
2019/11/14 5:27,1.6,11,1.6,10,3.1,9
2019/11/14 5:28,1.6,11,1.7,11,2.5,11
2019/11/14 5:29,1.7,11,1.7,11,2.2,11
2019/11/14 5:30,1.7,11,1.7,11,2.1,9
2019/11/14 5:31,1.7,11,1.8,11,2,10
2019/11/14 5:32,1.6,10,1.7,11,1.5,10
2019/11/14 5:33,1.6,10,1.6,11,2.4,10
2019/11/14 5:34,1.5,10,1.6,11,1.3,11
2019/11/14 5:35,1.3,10,1.5,11,0.9,9
2019/11/14 5:36,1.2,10,1.3,11,1.5,2
2019/11/14 5:37,1.2,11,1.2,11,1.9,3
2019/11/14 5:38,1.1,11,1.1,11,3.1,1
2019/11/14 5:39,1.2,12,1.3,11,3.6,2
2019/11/14 5:40,1.6,1,1.6,11,9.9,15
2019/11/14 5:41,1.9,1,1.9,1,7.2,16
2019/11/14 5:42,2.4,1,2.4,1,8.7,15
2019/11/14 5:43,2.8,1,2.8,1,9.5,15
2019/11/14 5:44,3.4,1,3.4,1,11.3,16
2019/11/14 5:45,4.1,1,4.1,1,13.6,16
2019/11/14 5:46,4.8,1,4.8,1,11.9,15
2019/11/14 5:47,5.4,16,5.4,16,10.5,1
2019/11/14 5:48,5.8,16,5.8,16,9,16
2019/11/14 5:49,6,16,6,16,8.2,1
2019/11/14 5:50,5.9,16,6,16,6.4,1
2019/11/14 5:51,6.1,16,6.1,16,9.5,15
2019/11/14 5:52,6,16,6.1,16,10.2,1
2019/11/14 5:53,5.7,16,6,16,3.1,2
2019/11/14 5:54,5.3,16,5.7,16,4.5,14
2019/11/14 5:55,4.7,16,5.3,16,3.7,16
2019/11/14 5:56,4.3,16,4.7,16,5.1,16
2019/11/14 5:57,3.6,16,4.2,16,1.6,16
2019/11/14 5:58,3,16,3.5,16,1,12
2019/11/14 5:59,2.7,16,3,16,2.2,9
2019/11/14 6:00,2.4,15,2.7,16,2.1,10
2019/11/14 6:01,1.8,15,2.3,16,1.4,16
2019/11/14 6:02,1.5,15,1.8,16,3.2,16
2019/11/14 6:03,1.4,15,1.5,16,3.3,11
2019/11/14 6:04,1.4,14,1.4,16,3.2,14
2019/11/14 6:05,1.5,14,1.5,16,4.7,1
2019/11/14 6:06,1.4,14,1.5,16,4.1,1
2019/11/14 6:07,1.6,14,1.6,16,4.5,1
2019/11/14 6:08,1.8,15,1.8,16,5,16
2019/11/14 6:09,2,15,2,16,5,15
2019/11/14 6:10,2.2,15,2.2,15,5.1,14
2019/11/14 6:11,2.3,15,2.3,15,3.2,3
2019/11/14 6:12,2.2,15,2.3,15,3,16
2019/11/14 6:13,2.3,16,2.3,15,4.2,16
2019/11/14 6:14,2.3,16,2.3,15,2.7,15
2019/11/14 6:15,2.4,16,2.4,16,7.8,16
2019/11/14 6:16,2.6,16,2.6,16,7.8,16
2019/11/14 6:17,2.8,16,2.8,16,9.4,14
2019/11/14 6:18,2.8,16,2.8,16,4.4,15
2019/11/14 6:19,2.8,16,2.8,16,7.4,14
2019/11/14 6:20,3,16,3,16,7.1,14
2019/11/14 6:21,3.2,16,3.2,16,5.8,15
2019/11/14 6:22,3.3,15,3.3,15,4.9,16
2019/11/14 6:23,3.3,15,3.3,15,3.5,15
2019/11/14 6:24,3.3,15,3.3,15,7.7,16
2019/11/14 6:25,3.2,15,3.3,15,7.7,16
2019/11/14 6:26,3.1,15,3.2,15,5.2,14
2019/11/14 6:27,2.8,15,3.1,15,4.1,15
2019/11/14 6:28,2.9,16,2.9,15,4.8,16
2019/11/14 6:29,2.9,16,2.9,15,7,15
2019/11/14 6:30,2.7,16,2.9,15,4.9,12
2019/11/14 6:31,2.6,15,2.7,15,4.1,15
2019/11/14 6:32,2.5,15,2.6,15,2.9,15
2019/11/14 6:33,2.4,15,2.5,15,3,16
2019/11/14 6:34,2.6,15,2.6,15,6.3,15
2019/11/14 6:35,2.6,15,2.6,15,6.2,16
2019/11/14 6:36,2.8,15,2.8,15,5,16
2019/11/14 6:37,2.9,15,2.9,16,5.4,15
2019/11/14 6:38,3.1,15,3.1,15,7.9,15
2019/11/14 6:39,3.2,15,3.2,15,7.4,15
2019/11/14 6:40,3.4,15,3.4,15,10.2,15
2019/11/14 6:41,3.7,15,3.7,15,8.9,1
2019/11/14 6:42,3.9,15,3.9,15,4.9,16
2019/11/14 6:43,4,15,4.1,15,6.2,15
2019/11/14 6:44,4.1,15,4.2,15,9.4,15
2019/11/14 6:45,4.4,15,4.4,15,10.9,15
2019/11/14 6:46,4.3,15,4.4,15,4.9,1
2019/11/14 6:47,4.2,16,4.3,15,5.1,16
2019/11/14 6:48,4.1,16,4.2,15,5.7,15
2019/11/14 6:49,3.9,15,4.1,15,4.8,13
2019/11/14 6:50,4.1,15,4.1,15,9.1,16
2019/11/14 6:51,4,15,4.1,15,10.1,15
2019/11/14 6:52,4.1,15,4.1,15,7.4,16
2019/11/14 6:53,4.1,15,4.1,15,6.3,14
2019/11/14 6:54,3.9,15,4.2,15,7.1,14
2019/11/14 6:55,3.6,14,3.9,15,4.1,12
2019/11/14 6:56,3.5,14,3.6,15,5.7,12
2019/11/14 6:57,3.6,14,3.6,16,8.4,12
2019/11/14 6:58,3.5,14,3.6,15,5.4,13
2019/11/14 6:59,3.6,13,3.6,15,7.8,12
2019/11/14 7:00,3.2,13,3.6,15,3.2,1
2019/11/14 7:01,2.9,13,3.2,15,6.4,16
2019/11/14 7:02,2.8,13,2.9,15,5.5,12
2019/11/14 7:03,2.8,13,2.9,15,5.6,11
2019/11/14 7:04,2.8,13,2.8,15,5.6,12
2019/11/14 7:05,2.8,13,2.8,14,7.2,1
2019/11/14 7:06,2.7,13,2.8,14,3.7,16
2019/11/14 7:07,2.5,13,2.7,14,2.1,7
2019/11/14 7:08,2.4,14,2.5,14,5.8,16
2019/11/14 7:09,2.3,14,2.4,13,5.4,16
2019/11/14 7:10,2.3,14,2.3,13,4.7,14
2019/11/14 7:11,2.4,14,2.4,13,5.4,1
2019/11/14 7:12,2.4,14,2.5,13,7.1,11
2019/11/14 7:13,2.4,14,2.4,13,4.7,16
2019/11/14 7:14,2.7,14,2.7,13,12.2,12
2019/11/14 7:15,2.8,14,2.8,13,7.1,13
2019/11/14 7:16,2.9,14,2.9,14,5.2,16
2019/11/14 7:17,3.2,14,3.2,14,7.9,11
2019/11/14 7:18,3.5,14,3.5,14,10.2,12
2019/11/14 7:19,3.9,14,3.9,14,11.1,14
2019/11/14 7:20,4.2,14,4.2,14,10,15
2019/11/14 7:21,4.4,14,4.4,14,8.7,16
2019/11/14 7:22,4.6,15,4.6,14,6.5,14
2019/11/14 7:23,4.7,14,4.7,14,8.5,15
2019/11/14 7:24,4.6,15,4.7,14,7.8,14
2019/11/14 7:25,4.7,15,4.7,14,13.9,12
2019/11/14 7:26,5,14,5,14,13.2,12
2019/11/14 7:27,5.1,14,5.2,14,6.8,13
2019/11/14 7:28,5.1,14,5.2,14,10.2,14
2019/11/14 7:29,5.2,14,5.2,14,15,13
2019/11/14 7:30,5.1,14,5.2,14,11,13
2019/11/14 7:31,5.2,14,5.3,14,12.4,12
2019/11/14 7:32,5.2,13,5.3,14,10.5,12
2019/11/14 7:33,5.5,13,5.5,13,9.9,13
2019/11/14 7:34,5.4,13,5.6,13,8.5,11
2019/11/14 7:35,5.6,13,5.7,13,9.2,14
2019/11/14 7:36,5.2,13,5.5,13,3.7,14
2019/11/14 7:37,5.1,13,5.1,13,7.9,15
2019/11/14 7:38,5.3,13,5.3,13,10.7,15
2019/11/14 7:39,5,14,5.2,13,9,16
2019/11/14 7:40,5.2,14,5.2,13,9.8,1
2019/11/14 7:41,5,14,5.1,13,6.4,15
2019/11/14 7:42,5,14,5,13,11.9,13
2019/11/14 7:43,4.9,14,5,13,7.7,11
2019/11/14 7:44,4.8,14,4.9,13,7,10
2019/11/14 7:45,4.9,14,4.9,13,9.4,12
2019/11/14 7:46,5.2,14,5.2,13,9.3,11
2019/11/14 7:47,5.1,14,5.3,13,7.2,12
2019/11/14 7:48,4.8,14,5,14,8.6,12
2019/11/14 7:49,4.7,14,4.8,14,7.5,15
2019/11/14 7:50,4.5,13,4.7,14,7,14
2019/11/14 7:51,4.3,14,4.5,14,4.3,16
2019/11/14 7:52,4.1,14,4.3,14,6.3,13
2019/11/14 7:53,4,14,4.1,14,7.9,13
2019/11/14 7:54,4,14,4,14,6.8,13
2019/11/14 7:55,3.7,14,4,14,7.6,11
2019/11/14 7:56,3.7,14,3.7,14,8.3,15
2019/11/14 7:57,3.8,14,3.8,14,7.7,12
2019/11/14 7:58,3.8,13,3.8,14,6.4,12
2019/11/14 7:59,3.7,13,3.9,13,8.3,13
2019/11/14 8:00,3.5,13,3.7,13,3.7,14
2019/11/14 8:01,3.6,12,3.6,14,6.5,11
2019/11/14 8:02,3.9,12,3.9,14,7,12
2019/11/14 8:03,3.8,12,3.8,14,6.2,12
2019/11/14 8:04,3.6,12,3.7,14,4.2,10
2019/11/14 8:05,3.6,12,3.6,13,4.5,12
2019/11/14 8:06,3.7,12,3.7,13,11,9
2019/11/14 8:07,3.8,12,3.8,13,8.7,11
2019/11/14 8:08,3.8,12,3.8,13,4.7,12
2019/11/14 8:09,3.5,12,3.7,12,3.6,11
2019/11/14 8:10,3.4,12,3.5,12,3.3,14
2019/11/14 8:11,3.3,12,3.4,12,3.9,13
2019/11/14 8:12,3,12,3.3,12,2.6,11
2019/11/14 8:13,2.9,12,3,12,5,10
2019/11/14 8:14,3,11,3,12,5.1,8
2019/11/14 8:15,2.8,11,3,12,4.3,10
2019/11/14 8:16,2.5,11,2.8,12,5.8,10
2019/11/14 8:17,2.3,11,2.5,12,4.9,10
2019/11/14 8:18,2.1,11,2.2,12,3,9
2019/11/14 8:19,2.2,11,2.2,12,4.4,9
2019/11/14 8:20,2.4,11,2.4,12,5,12
2019/11/14 8:21,2.5,11,2.5,12,4.3,9
2019/11/14 8:22,2.4,11,2.5,12,3.7,13
2019/11/14 8:23,2.2,11,2.4,11,1.3,8
2019/11/14 8:24,2.1,11,2.2,11,3.1,9
2019/11/14 8:25,2,11,2.1,11,3.9,9
2019/11/14 8:26,1.8,11,2,11,2.9,11
2019/11/14 8:27,1.7,10,1.8,11,1.3,4
2019/11/14 8:28,1.7,10,1.7,11,3.5,2
2019/11/14 8:29,1.8,10,1.8,11,5.7,16
2019/11/14 8:30,1.9,12,1.9,11,6,1
2019/11/14 8:31,2,16,2,11,8.7,16
2019/11/14 8:32,2.5,1,2.5,1,8.9,1
2019/11/14 8:33,2.9,16,2.9,16,9.1,16
2019/11/14 8:34,3.2,16,3.2,16,7.9,15
2019/11/14 8:35,3.6,16,3.6,16,9,16
2019/11/14 8:36,4.1,16,4.1,16,11.1,16
2019/11/14 8:37,4.5,16,4.5,16,8.9,16
2019/11/14 8:38,4.7,16,4.7,16,6.8,16
2019/11/14 8:39,4.7,16,4.7,16,8.1,16
2019/11/14 8:40,4.9,16,4.9,16,8.2,1
2019/11/14 8:41,5,16,5.1,16,8.2,16
2019/11/14 8:42,4.7,16,5,16,5.7,1
2019/11/14 8:43,4.7,16,4.7,16,8.3,1
2019/11/14 8:44,4.8,16,4.8,16,8.2,16
2019/11/14 8:45,4.6,16,4.8,16,6.2,2
2019/11/14 8:46,4.3,16,4.5,16,7,16
2019/11/14 8:47,4.2,16,4.3,16,6.3,15
2019/11/14 8:48,4,16,4.2,16,3.7,1
2019/11/14 8:49,3.8,16,4,16,5.2,1
2019/11/14 8:50,3.5,16,3.8,16,4.4,15
2019/11/14 8:51,3.2,16,3.5,16,3.7,15
2019/11/14 8:52,3.1,16,3.2,16,3.6,15
2019/11/14 8:53,2.8,16,3.1,16,2.6,14
2019/11/14 8:54,2.4,16,2.7,16,4.8,10
2019/11/14 8:55,2.2,15,2.4,16,4.5,8
2019/11/14 8:56,2,15,2.2,16,1.3,4
2019/11/14 8:57,1.7,15,1.9,16,2.7,9
2019/11/14 8:58,1.8,14,1.8,16,3.8,13
2019/11/14 8:59,1.6,14,1.8,16,3.8,15
2019/11/14 9:00,1.6,13,1.6,16,2.7,8
2019/11/14 9:01,1.6,12,1.6,16,5.8,11
2019/11/14 9:02,1.7,12,1.7,16,4.1,12
2019/11/14 9:03,1.7,12,1.7,16,3.7,14
2019/11/14 9:04,1.5,12,1.7,16,2.4,9
2019/11/14 9:05,1.5,12,1.5,15,2.6,11
2019/11/14 9:06,1.5,12,1.5,15,1.8,10
2019/11/14 9:07,1.5,12,1.5,14,1.5,14
2019/11/14 9:08,1.4,12,1.5,14,2,14
2019/11/14 9:09,1.4,12,1.4,12,3.2,1
2019/11/14 9:10,1.4,13,1.4,12,3.7,8
2019/11/14 9:11,1.2,13,1.4,12,3,9
2019/11/14 9:12,1.1,13,1.2,12,1.1,1
2019/11/14 9:13,1,13,1.1,12,2.6,15
2019/11/14 9:14,1.1,14,1.1,12,3.2,16
2019/11/14 9:15,1.2,14,1.2,12,2.9,14
2019/11/14 9:16,1.3,15,1.3,12,3.2,15
2019/11/14 9:17,1.4,16,1.4,12,3.5,2
2019/11/14 9:18,1.6,1,1.6,16,4.2,3
2019/11/14 9:19,1.7,1,1.7,1,4.1,1
2019/11/14 9:20,1.9,1,1.9,1,6.7,15
2019/11/14 9:21,2.1,16,2.1,1,4.5,16
2019/11/14 9:22,2.2,16,2.2,16,2.4,15
2019/11/14 9:23,2.2,1,2.2,16,2.9,4
2019/11/14 9:24,2.1,1,2.2,16,1.3,8
2019/11/14 9:25,2.1,2,2.1,16,2.6,3
2019/11/14 9:26,2.1,3,2.1,16,4.9,2
2019/11/14 9:27,2,3,2.1,16,2,1
2019/11/14 9:28,1.9,3,1.9,16,5.2,9
2019/11/14 9:29,2.1,3,2.1,16,7.2,8
2019/11/14 9:30,2,5,2.1,16,4.4,10
2019/11/14 9:31,1.8,6,2,16,3.7,9
2019/11/14 9:32,1.9,6,1.9,1,2.1,11
2019/11/14 9:33,1.7,7,1.9,1,0.4,9
2019/11/14 9:34,1.8,6,1.8,1,2.2,2
2019/11/14 9:35,1.9,6,1.9,2,3.5,15
2019/11/14 9:36,1.8,7,1.9,3,3.1,16
2019/11/14 9:37,1.9,9,1.9,3,3.7,1
2019/11/14 9:38,1.9,14,2,3,3.7,15
2019/11/14 9:39,1.6,16,1.9,3,4.4,15
2019/11/14 9:40,1.4,16,1.6,5,1.6,3
2019/11/14 9:41,1.4,1,1.4,11,2,4
2019/11/14 9:42,1.4,2,1.4,11,1.6,4
2019/11/14 9:43,1.4,2,1.4,11,1.8,4
2019/11/14 9:44,1.3,2,1.4,11,0.1,16
2019/11/14 9:45,1.1,2,1.3,11,2,16
2019/11/14 9:46,1.1,1,1.1,11,1.9,15
2019/11/14 9:47,1.2,1,1.2,11,5.4,15
2019/11/14 9:48,1.5,1,1.5,15,7.5,15
2019/11/14 9:49,1.6,1,1.6,16,5.8,15
2019/11/14 9:50,1.8,16,1.8,16,3.9,13
2019/11/14 9:51,1.9,15,1.9,16,2.7,14
2019/11/14 9:52,2,14,2,15,4.2,9
2019/11/14 9:53,2.2,14,2.2,14,4.2,13
2019/11/14 9:54,2.5,14,2.5,14,5.1,1
2019/11/14 9:55,2.7,14,2.7,14,4.1,1
2019/11/14 9:56,2.6,14,2.7,14,2.2,1
2019/11/14 9:57,2.7,15,2.7,14,6.3,2
2019/11/14 9:58,2.5,14,2.7,14,5.4,10
2019/11/14 9:59,2.5,14,2.6,14,6.3,10
2019/11/14 10:00,2.4,13,2.5,14,4.2,9
2019/11/14 10:01,2.5,13,2.5,14,6.3,9
2019/11/14 10:02,2.6,13,2.6,14,7.4,10
2019/11/14 10:03,2.8,12,2.8,12,7.6,14
2019/11/14 10:04,2.9,12,3,12,7.9,13
2019/11/14 10:05,3,11,3,12,7.1,10
2019/11/14 10:06,3.4,11,3.4,11,9.7,10
2019/11/14 10:07,3.5,11,3.5,11,8.3,10
2019/11/14 10:08,3.6,11,3.6,11,7.9,9
2019/11/14 10:09,3.6,11,3.6,11,8.7,10
2019/11/14 10:10,3.8,11,3.8,11,7.9,15
2019/11/14 10:11,3.9,12,3.9,11,7.9,15
2019/11/14 10:12,4,12,4,12,7.2,16
2019/11/14 10:13,3.8,12,4,12,4.8,12
2019/11/14 10:14,3.5,12,3.8,12,2,12
2019/11/14 10:15,3.3,12,3.4,12,4.1,10
2019/11/14 10:16,3,13,3.3,12,3,14
2019/11/14 10:17,2.8,13,3,12,5.2,11
2019/11/14 10:18,2.6,13,2.8,12,5.4,11
2019/11/14 10:19,2.7,13,2.7,12,7.4,11
2019/11/14 10:20,2.8,12,2.8,12,8.4,9
2019/11/14 10:21,2.9,12,2.9,12,10.6,9
2019/11/14 10:22,2.9,11,3,12,9.2,11
2019/11/14 10:23,2.8,11,2.9,12,4.7,8
2019/11/14 10:24,2.9,11,2.9,12,2.7,1
2019/11/14 10:25,2.9,11,2.9,12,3,3
2019/11/14 10:26,2.9,11,2.9,13,5,14
2019/11/14 10:27,3,11,3,12,4.4,11
2019/11/14 10:28,2.9,11,3,12,4.4,11
2019/11/14 10:29,2.8,11,2.9,12,5,12
2019/11/14 10:30,2.3,10,2.7,12,3,9
2019/11/14 10:31,2,10,2.3,12,6.1,11
2019/11/14 10:32,1.8,11,2,11,4.2,11
2019/11/14 10:33,1.8,12,1.8,11,3.2,7
2019/11/14 10:34,1.8,10,1.8,11,2.6,7
2019/11/14 10:35,1.8,11,1.8,11,3.6,11
2019/11/14 10:36,1.8,11,1.9,11,4.4,2
2019/11/14 10:37,1.9,13,1.9,11,5.2,2
2019/11/14 10:38,2.1,16,2.1,11,5.2,1
2019/11/14 10:39,2,1,2.1,11,1.6,2
2019/11/14 10:40,2.1,16,2.1,10,5.6,15
2019/11/14 10:41,2.4,16,2.4,16,9.9,16
2019/11/14 10:42,2.7,16,2.7,16,7.7,16
2019/11/14 10:43,2.7,16,2.7,16,3,16
2019/11/14 10:44,2.7,15,2.7,16,1.9,13
2019/11/14 10:45,2.5,16,2.7,16,1.8,9
2019/11/14 10:46,2.4,15,2.5,16,3.5,12
2019/11/14 10:47,2.2,14,2.4,16,3.9,8
2019/11/14 10:48,2.1,13,2.2,16,4.3,8
2019/11/14 10:49,2.3,12,2.3,16,6.4,9